Weather History for Lee's Summit, MO

Change the Weather History Date:

Thursday, May 9, 2013

  Actual Average (KMKC) Record (KMKC)
Temperature  
Mean Temperature 66 °F -  
Max Temperature 75 °F 72 °F 90 °F (2011)
Min Temperature 60 °F 53 °F 48 °F (1997)
Cooling Degree Days 2    
Growing Degree Days 16 (Base 50)    
Moisture  
Dew Point 58 °F    
Average Humidity 79    
Maximum Humidity 93    
Minimum Humidity 50    
Precipitation  
Precipitation 0.12 in - - ()
Sea Level Pressure  
Sea Level Pressure 29.88 in    
Wind  
Wind Speed 5 mph (WSW)    
Max Wind Speed 12 mph    
Max Gust Speed 20 mph    
Visibility 9 miles    
Events Rain , Thunderstorm    
Averages and records for this station are not official NWS values.
T = Trace of Precipitation, MM = Missing Value Source: NWS Daily Summary

Daily Weather History Graph

Daily Weather History Graph

Search for Another Location

Airport:

Trip Planner

Search our weather history database for the weather conditions in past years. The results will help you decide how hot, cold, wet, or windy it might be!

Date:

Astronomy

May. 09, 2013 Rise Set
Actual Time 6:10 AM CDT 8:18 PM CDT
Civil Twilight 5:40 AM CDT 8:47 PM CDT
Nautical Twilight 5:04 AM CDT 9:23 PM CDT
Astronomical Twilight 4:25 AM CDT 10:03 PM CDT
Moon 5:55 AM CDT (5/9) 8:13 PM CDT (5/9)
Length of Visible Light 15h 06m
Length of Day
14h 07m
Waning Crescent, 0% of the Moon is Illuminated
May 9
Waning Crescent
May 9
New
May 17
First Quarter
May 24
Full
May 31
Last Quarter

Hourly Weather History & Observations

Time (CDT) Temp. Dew Point Humidity Pressure Visibility Wind Dir Wind Speed Gust Speed Precip Events Conditions
12:03 AM 64.4 °F 57.2 °F 77% 29.91 in 10.0 mi SSW 6.9 mph - 0.00 in Thunderstorm Overcast
12:24 AM 62.6 °F 57.2 °F 82% 29.92 in 10.0 mi WSW 4.6 mph - 0.00 in Rain , Thunderstorm Light Rain
12:53 AM 63.0 °F 57.9 °F 84% 29.91 in 10.0 mi WSW 8.1 mph - 0.01 in Rain , Thunderstorm Light Thunderstorms and Rain
1:53 AM 61.0 °F 57.9 °F 90% 29.90 in 10.0 mi Calm Calm - 0.09 in   Overcast
2:53 AM 60.1 °F 57.9 °F 93% 29.88 in 10.0 mi NE 6.9 mph - 0.00 in   Mostly Cloudy
3:53 AM 60.1 °F 57.9 °F 93% 29.90 in 7.0 mi Calm Calm - N/A   Overcast
4:53 AM 60.1 °F 57.9 °F 93% 29.87 in 8.0 mi SE 4.6 mph - N/A   Clear
5:53 AM 60.1 °F 57.0 °F 90% 29.84 in 10.0 mi ESE 4.6 mph - 0.01 in   Clear
6:53 AM 60.1 °F 57.9 °F 93% 29.86 in 5.0 mi Calm Calm - N/A   Scattered Clouds
7:53 AM 61.0 °F 57.9 °F 90% 29.85 in 8.0 mi SE 4.6 mph - N/A   Clear
8:53 AM 63.0 °F 60.1 °F 90% 29.87 in 10.0 mi West 3.5 mph - N/A   Partly Cloudy
9:53 AM 63.0 °F 60.1 °F 90% 29.88 in 10.0 mi West 4.6 mph - N/A   Mostly Cloudy
10:09 AM 64.4 °F 60.8 °F 88% 29.90 in 10.0 mi West 6.9 mph - N/A   Scattered Clouds
10:53 AM 66.9 °F 61.0 °F 81% 29.88 in 10.0 mi SW 6.9 mph - N/A   Clear
12:53 PM 72.0 °F 57.0 °F 59% 29.88 in 10.0 mi West 6.9 mph - N/A   Mostly Cloudy
1:53 PM 73.9 °F 55.9 °F 53% 29.88 in 10.0 mi SW 11.5 mph - N/A   Scattered Clouds
2:53 PM 73.0 °F 55.0 °F 53% 29.86 in 10.0 mi WSW 8.1 mph - N/A   Mostly Cloudy
3:53 PM 73.9 °F 54.0 °F 50% 29.86 in 10.0 mi Variable 5.8 mph - N/A   Overcast
4:26 PM 71.6 °F 53.6 °F 53% 29.87 in 10.0 mi WNW 10.4 mph - N/A Thunderstorm Overcast
4:53 PM 69.1 °F 60.1 °F 73% 29.87 in 10.0 mi SW 3.5 mph - 0.01 in Thunderstorm Thunderstorm
5:38 PM 64.4 °F 57.2 °F 77% 29.89 in 10.0 mi SSW 9.2 mph 19.6 mph N/A   Overcast
5:53 PM 66.0 °F 57.9 °F 75% 29.88 in 10.0 mi Calm Calm - N/A   Mostly Cloudy
7:31 PM 69.8 °F 59.0 °F 68% 29.89 in 10.0 mi WNW 4.6 mph - N/A Thunderstorm Scattered Clouds
7:53 PM 68.0 °F 59.0 °F 73% 29.88 in 10.0 mi WNW 4.6 mph - N/A Thunderstorm Partly Cloudy
8:04 PM 66.2 °F 59.0 °F 78% 29.90 in 2.5 mi WSW 3.5 mph - 0.05 in Rain Rain
8:12 PM 64.4 °F 59.0 °F 83% 29.90 in 1.0 mi SSW 11.5 mph 16.1 mph 0.24 in Rain Heavy Rain
9:53 PM 64.0 °F 59.0 °F 84% 29.91 in 10.0 mi NW 3.5 mph - N/A   Clear
10:53 PM 62.1 °F 57.9 °F 86% 29.93 in 10.0 mi Calm Calm - N/A   Clear